Location: Beaurecueil
(43.5122°N, 5.5450°E)
Time: 16:42:03
(UTC+00:00)

MOS 1 - Pass Details

Date: 18 September 2020
Orbit: 878 x 891 km, 99.1° (Epoch: 20 October)

Event Time Altitude Azimuth Distance (km) Brightness Sun altitude
Exits shadow 19:23:02 18° 159° (SSE) 2,026 5.8 -18.7°
Maximum altitude 19:27:21 81° 74° (ENE) 907 4.2 -19.5°
Drops below altitude 10° 19:33:05 10° 348° (NNW) 2,569 7.2 -20.4°
Sets 19:35:29 0° 347° (NNW) 3,513 7.9 -20.8°
